Weather History for KHUL - September, 2013

Change the Weather History Date:

Thursday, September 26, 2013

  Actual Average Record
Temperature  
Mean Temperature 52 °F 51 °F  
Max Temperature 59 °F 62 °F 85 °F (2007)
Min Temperature 44 °F 39 °F 23 °F (1939)
Degree Days  
Heating Degree Days 13 14  
Month to date heating degree days 237 251  
Since 1 July heating degree days 370 407  
Cooling Degree Days 0 0  
Month to date cooling degree days 19 12  
Year to date cooling degree days 198 190  
Growing Degree Days 2 (Base 50)    
Moisture  
Dew Point 47 °F    
Average Humidity 80    
Maximum Humidity 93    
Minimum Humidity 67    
Precipitation  
Precipitation 0.00 in 0.12 in 1.20 in (1961)
Month to date precipitation 5.17 2.90  
Year to date precipitation 32.70 28.52  
Sea Level Pressure  
Sea Level Pressure 30.03 in    
Wind  
Wind Speed 7 mph (North)    
Max Wind Speed 20 mph    
Max Gust Speed 24 mph    
Visibility 10 miles    
Events      
T = Trace of Precipitation, MM = Missing Value Source: NWS Daily Summary

Daily Weather History Graph

Daily Weather History Graph

Search for Another Location

Airport or City:

Trip Planner

Search our weather history database for the weather conditions in past years. The results will help you decide how hot, cold, wet, or windy it might be!

Date:

Astronomy

Sep. 26, 2013 Rise Set
Actual Time 6:23 AM EDT 6:20 PM EDT
Civil Twilight 5:53 AM EDT 6:50 PM EDT
Nautical Twilight 5:18 AM EDT 7:25 PM EDT
Astronomical Twilight 4:42 AM EDT 8:00 PM EDT
Moon 10:59 PM EDT (9/26) 1:29 PM EDT (9/26)
Length of Visible Light 12h 56m
Length of Day
11h 57m
Waning Gibbous, 55% of the Moon is Illuminated
Sep 26
Waning Gibbous
Sep 26
Last Quarter
Oct 4
New
Oct 11
First Quarter
Oct 18
Full

Hourly Weather History & Observations

Time (EDT) Temp. Windchill Dew Point Humidity Pressure Visibility Wind Dir Wind Speed Gust Speed Precip Events Conditions
12:53 AM 48.9 °F - 45.0 °F 86% 29.95 in 10.0 mi North 6.9 mph - N/A   Overcast
1:53 AM 48.0 °F - 44.1 °F 86% 29.96 in 10.0 mi North 9.2 mph - N/A   Overcast
2:53 AM 46.0 °F 42.5 °F 43.0 °F 89% 29.96 in 10.0 mi North 6.9 mph - N/A   Clear
3:53 AM 46.0 °F 42.5 °F 44.1 °F 93% 29.97 in 10.0 mi NNE 6.9 mph - N/A   Overcast
4:53 AM 46.0 °F 43.1 °F 44.1 °F 93% 29.98 in 10.0 mi NNE 5.8 mph - N/A   Overcast
5:10 AM 46.4 °F 44.3 °F 44.6 °F 93% 29.97 in 10.0 mi North 4.6 mph - N/A   Overcast
5:53 AM 46.0 °F 42.5 °F 43.0 °F 89% 29.98 in 10.0 mi North 6.9 mph - N/A   Overcast
6:19 AM 46.4 °F 42.4 °F 44.6 °F 93% 29.98 in 10.0 mi North 8.1 mph - N/A   Overcast
6:53 AM 46.9 °F - 44.1 °F 90% 30.01 in 10.0 mi NNE 5.8 mph - N/A   Overcast
7:21 AM 46.4 °F 45.2 °F 44.6 °F 93% 30.01 in 10.0 mi NNE 3.5 mph - N/A   Overcast
7:53 AM 48.9 °F - 45.0 °F 86% 30.02 in 10.0 mi NNW 9.2 mph - N/A   Overcast
8:53 AM 52.0 °F - 46.0 °F 80% 30.02 in 10.0 mi North 10.4 mph - N/A   Mostly Cloudy
9:12 AM 53.6 °F - 46.4 °F 77% 30.01 in 10.0 mi North 17.3 mph - N/A   Scattered Clouds
9:53 AM 53.1 °F - 46.0 °F 77% 30.03 in 10.0 mi North 15.0 mph 24.2 mph N/A   Mostly Cloudy
10:35 AM 53.6 °F - 46.4 °F 77% 30.03 in 10.0 mi North 15.0 mph 23.0 mph N/A   Overcast
10:53 AM 55.0 °F - 46.0 °F 72% 30.04 in 10.0 mi North 10.4 mph - N/A   Overcast
11:53 AM 55.0 °F - 46.0 °F 72% 30.04 in 10.0 mi North 11.5 mph - N/A   Overcast
12:53 PM 55.0 °F - 46.0 °F 72% 30.04 in 10.0 mi North 13.8 mph - N/A   Overcast
1:53 PM 57.0 °F - 48.0 °F 72% 30.03 in 10.0 mi NNW 12.7 mph - N/A   Overcast
2:53 PM 59.0 °F - 48.0 °F 67% 30.03 in 10.0 mi North 12.7 mph 18.4 mph N/A   Overcast
3:28 PM 59.0 °F - 48.2 °F 67% 30.02 in 10.0 mi North 11.5 mph - N/A   Overcast
3:53 PM 57.9 °F - 48.9 °F 72% 30.04 in 10.0 mi North 9.2 mph - N/A   Overcast
4:53 PM 57.0 °F - 48.0 °F 72% 30.06 in 10.0 mi North 6.9 mph - N/A   Overcast
5:53 PM 57.0 °F - 48.9 °F 74% 30.07 in 10.0 mi Calm Calm - N/A   Overcast
6:53 PM 55.0 °F - 51.1 °F 86% 30.08 in 10.0 mi Calm Calm - N/A   Overcast
7:53 PM 55.9 °F - 50.0 °F 80% 30.10 in 10.0 mi Calm Calm - N/A   Overcast
8:53 PM 55.0 °F - 50.0 °F 83% 30.10 in 10.0 mi North 4.6 mph - N/A   Overcast
9:53 PM 54.0 °F - 50.0 °F 86% 30.11 in 10.0 mi NNE 4.6 mph - N/A   Overcast
10:53 PM 54.0 °F - 50.0 °F 86% 30.11 in 10.0 mi NE 4.6 mph - N/A   Overcast
11:53 PM 54.0 °F - 50.0 °F 86% 30.12 in 10.0 mi NNE 4.6 mph - N/A   Overcast